User: anonymous   Login
Location: Unspecified
(0.0000°N, 0.0000°E)
Time: 13:44:38
(UTC+00:00)
Language:

N. Korean satellite - Orbit

View from above orbital plane
View from above orbital plane
View from above satellite
View from above satellite

Ground track
Ground track

The orbit data is extracted from the following two-line orbital elements,

1 39026U 12072A   17114.93886670 +.00004996 +00000-0 +19685-3 0  9993
2 39026 097.2261 134.6018 0040887 008.4004 351.7910 15.25258983241815
Epoch (UTC): 24 April 2017 22:31:58
Eccentricity: 0.0040887
inclination: 97.2261°
perigee height: 462 km
apogee height: 518 km
right ascension of ascending node: 134.6018°
argument of perigee: 8.4004°
revolutions per day: 15.25258983
mean anomaly at epoch: 351.7910°
orbit number at epoch: 24181

The dashed part of the orbit path shows where the satellite is in the earth's shadow,  

DLR